This demonstration page uses our WeatherBlox Daily Observations layout. Learn more.

39.51506, -84.39828

Hourly Observations for September 25, 2020

Temp ( °F °C ) Dew Point ( °F °C ) Humidity (%) Winds ( mph kmh ) Pressure ( in mb ) Visibility ( mi km ) Precip ( " mm )
12:15 am 00:15 Clear 54 12.2 53 11.8 97 97 Calm 30.01 1016 10 16.0934 0 0
12:35 am 00:35 Clear 54 12.4 54 12.1 98 98 Calm 30.01 1016 10 16.0934 0 0
12:55 am 00:55 Clear 54 12.3 53 11.9 97 97 Calm 30.02 1017 10 16.0934 0 0
1:15 am 01:15 Clear 55 12.5 54 12 97 97 Calm 30.02 1017 10 16.0934 0 0
1:35 am 01:35 Clear 54 12.3 54 12 98 98 Calm 30.01 1016 10 16.0934 0 0
1:55 am 01:55 Clear 54 12.4 54 12.1 98 98 Calm 30.01 1016 10 16.0934 0 0
2:15 am 02:15 Clear 53 11.9 53 11.8 99 99 Calm 30.01 1016 10 16.0934 0 0
2:35 am 02:35 Clear 53 11.7 53 11.6 99 99 Calm 30.01 1016 10 16.0934 0 0
2:55 am 02:55 Clear 53 11.5 53 11.4 99 99 Calm 30.02 1016 10 16.0934 0 0
3:15 am 03:15 Clear 53 11.6 53 11.6 100 100 Calm 30.01 1016 7 11.26538 0 0
3:35 am 03:35 Clear 52 11 52 11 100 100 Calm 30.02 1016 10 16.0934 0 0
3:55 am 03:55 Clear 54 12 N/A N/A Calm 30.01 1016 7 11.26538 0 0
4:15 am 04:15 Clear with Mist and Fog 52 11 52 11 100 100 Calm 30.01 1016 5 8.0467 0 0
4:35 am 04:35 Clear 52 11 N/A N/A Calm 30.01 1016 7 11.26538 0 0
4:55 am 04:55 Hazy 52 11 N/A N/A Calm 30.01 1016 7 11.26538 0 0
5:15 am 05:15 Clear 54 12 N/A N/A Calm 30.01 1016 7 11.26538 0 0
5:35 am 05:35 Clear with Mist and Fog 52 11 52 11 100 100 Calm 30.02 1016 7 11.26538 0 0
5:55 am 05:55 Clear with Mist and Fog 52 11 52 11 100 100 NNE 3 6 30.02 1016 5 8.0467 0 0
6:15 am 06:15 Hazy 52 11 N/A N/A Calm 30.03 1017 7 11.26538 0 0
6:35 am 06:35 Clear with Mist and Fog 52 11 N/A N/A Calm 30.04 1017 4 6.43736 0 0
6:55 am 06:55 Hazy 52 11 N/A N/A Calm 30.04 1017 7 11.26538 0 0
7:15 am 07:15 Hazy 52 11 N/A N/A Calm 30.04 1017 5 8.0467 0 0
7:35 am 07:35 Hazy 52 11 N/A N/A Calm 30.04 1017 5 8.0467 0 0
7:55 am 07:55 Hazy 52 11 N/A N/A Calm 30.04 1017 5 8.0467 0 0
8:15 am 08:15 Hazy 54 12 N/A N/A Calm 30.04 1017 5 8.0467 0 0
8:35 am 08:35 Sunny with Mist and Fog 55 12.9 55 12.9 100 100 Calm 30.04 1017 7 11.26538 0 0
8:55 am 08:55 Sunny 57 14.1 56 13.2 94 94 Calm 30.04 1017 10 16.0934 0 0
9:15 am 09:15 Sunny 60 15.6 57 13.8 89 89 NNE 3 6 30.05 1017 10 16.0934 0 0
9:35 am 09:35 Sunny 62 16.8 57 13.7 82 82 NE 5 7 30.04 1017 10 16.0934 0 0
9:55 am 09:55 Sunny 65 18.2 57 13.8 76 76 ENE 5 7 30.04 1017 10 16.0934 0 0
10:15 am 10:15 Sunny 68 20.2 57 14 68 68 E 7 11 30.03 1017 10 16.0934 0 0
10:35 am 10:35 Sunny 70 21.1 57 13.9 64 64 ESE 7 11 30.03 1017 10 16.0934 0 0
10:55 am 10:55 Mostly Cloudy 72 22.1 57 13.7 59 59 E 9 15 30.03 1017 10 16.0934 0 0
11:15 am 11:15 Mostly Cloudy 71 21.7 57 13.7 61 61 ENE 8 13 30.03 1017 10 16.0934 0 0
11:35 am 11:35 Cloudy 71 21.9 57 13.9 61 61 ESE 7 11 30.03 1017 10 16.0934 0 0
11:55 am 11:55 Cloudy 72 22.1 57 14 60 60 SE 6 9 30.03 1017 10 16.0934 0 0
12:15 pm 12:15 Cloudy 73 22.7 57 14.1 58 58 SE 8 13 30.02 1017 10 16.0934 0 0
12:35 pm 12:35 Cloudy 73 23 57 13.8 56 56 SE 6 9 30.02 1017 10 16.0934 0 0
12:55 pm 12:55 Cloudy 74 23.2 57 14.1 57 57 E 6 9 30.02 1016 10 16.0934 0 0
1:15 pm 13:15 Cloudy 75 23.9 58 14.2 55 55 Calm 30.01 1016 10 16.0934 0 0
1:35 pm 13:35 Cloudy 77 25 57 14.1 51 51 ESE 8 13 29.99 1016 10 16.0934 0 0
1:55 pm 13:55 Partly Cloudy 77 24.9 58 14.3 52 52 ESE 3 6 29.98 1015 10 16.0934 0 0
2:15 pm 14:15 Sunny 77 25.1 58 14.3 51 51 SSE 8 13 29.97 1015 10 16.0934 0 0
2:35 pm 14:35 Sunny 78 25.8 58 14.7 50 50 SSE 6 9 29.95 1014 10 16.0934 0 0
2:55 pm 14:55 Partly Cloudy 80 26.4 58 14.6 48 48 Calm 29.95 1014 10 16.0934 0 0
3:15 pm 15:15 Sunny 80 26.4 58 14.7 49 49 SE 6 9 29.94 1014 10 16.0934 0 0
3:35 pm 15:35 Sunny 80 26.4 58 14.6 48 48 E 6 9 29.94 1014 10 16.0934 0 0
3:55 pm 15:55 Sunny 79 26.1 58 14.5 49 49 SW 3 6 29.93 1014 10 16.0934 0 0
4:15 pm 16:15 Sunny 81 27.3 58 14.6 46 46 E 5 7 29.93 1013 10 16.0934 0 0
4:35 pm 16:35 Partly Cloudy 80 26.9 58 14.7 47 47 E 5 7 29.92 1013 10 16.0934 0 0
4:55 pm 16:55 Partly Cloudy 81 27.3 58 14.7 46 46 E 7 11 29.92 1013 10 16.0934 0 0
5:15 pm 17:15 Partly Cloudy 81 27 58 14.7 47 47 Calm 29.92 1013 10 16.0934 0 0
5:35 pm 17:35 Partly Cloudy 80 26.6 58 14.7 48 48 SW 5 7 29.93 1014 10 16.0934 0 0
5:50 pm 17:50 Mostly Cloudy 81 27 59 15 48 48 S 7 11 29.93 1013 10 16.0934 0 0
6:15 pm 18:15 Sunny 79 26.2 59 15 50 50 SSW 3 6 29.93 1014 10 16.0934 0 0
6:35 pm 18:35 Mostly Cloudy 79 26 60 15.3 52 52 Calm 29.93 1014 10 16.0934 0 0
6:55 pm 18:55 Partly Cloudy 77 25.1 59 15.2 54 54 S 5 7 29.94 1014 10 16.0934 0 0
7:15 pm 19:15 Sunny 76 24.7 60 15.3 56 56 SSE 5 7 29.94 1014 10 16.0934 0 0
7:35 pm 19:35 Partly Cloudy 76 24.2 60 15.6 59 59 SSE 5 7 29.94 1014 10 16.0934 0 0
7:55 pm 19:55 Clear 75 23.8 60 15.7 61 61 SSE 5 7 29.95 1014 10 16.0934 0 0
8:15 pm 20:15 Clear 74 23.3 60 15.8 63 63 Calm 29.95 1014 10 16.0934 0 0
8:35 pm 20:35 Partly Cloudy 67 19.6 61 15.9 79 79 Calm 29.97 1015 10 16.0934 0 0
8:55 pm 20:55 Cloudy 68 19.8 62 16.6 82 82 Calm 29.98 1015 10 16.0934 0 0
9:15 pm 21:15 Cloudy 70 20.9 61 16.3 75 75 Calm 29.97 1015 10 16.0934 0 0
9:35 pm 21:35 Cloudy 68 19.8 62 16.7 82 82 SSW 3 6 29.99 1015 10 16.0934 0 0
9:55 pm 21:55 Cloudy 69 20.8 62 16.6 77 77 Calm 29.98 1015 10 16.0934 0 0
10:15 pm 22:15 Cloudy 69 20.8 62 16.8 78 78 Calm 29.98 1015 10 16.0934 0 0
10:35 pm 22:35 Cloudy 70 20.9 62 16.7 77 77 Calm 29.98 1015 10 16.0934 0 0
10:55 pm 22:55 Cloudy 68 20.2 63 17.2 83 83 Calm 29.97 1015 10 16.0934 0 0
11:15 pm 23:15 Cloudy 68 20.1 63 17.3 84 84 Calm 29.97 1015 10 16.0934 0 0
11:35 pm 23:35 Cloudy 68 19.9 63 17.4 86 86 Calm 29.98 1015 10 16.0934 0 0
11:55 pm 23:55 Cloudy 68 19.8 63 17.4 86 86 Calm 29.99 1015 10 16.0934 0 0

Powered by AerisWeather